User: anonymous   Login
Location: PSU-Greenbush Astrophysical Observatory
(37.5140°N, 94.9880°W)
Time: 23:43:47
(UTC-06:00)
Language:

A-11 Canister half - Orbit

View from above orbital plane
View from above orbital plane
View from above satellite
View from above satellite

Ground track
Ground track

The orbit data is extracted from the following two-line orbital elements,

1    53U 60009E   20019.34999008 -.00000028 +00000-0 +56564-3 0  9997
2    53 047.2783 001.8811 0099322 356.6118 003.3989 12.17236436650283
Epoch (UTC): 19 January 2020 08:23:59
Eccentricity: 0.0099322
inclination: 47.2783°
perigee height: 1525 km
apogee height: 1684 km
right ascension of ascending node: 1.8811°
argument of perigee: 356.6118°
revolutions per day: 12.17236436
mean anomaly at epoch: 3.3989°
orbit number at epoch: 65028

The dashed part of the orbit path shows where the satellite is in the earth's shadow,  

DLR